Wind_Speed
47 49 50 51 52 51 51 51 51 49 46 46 45 46 45 45 44 43 42 41 40 39 38 37 37 37 37 38 38 38 39 40 40 41 41 42 44 45 46 47 49 50 52
45 48 50 50 52 51 51 51 51 49 47 47 46 45 44 44 44 43 42 41 40 39 37 37 37 37 37 37 37 38 39 39 40 40 41 42 44 45 46 47 49 50 52
43 47 50 50 50 50 51 51 52 50 48 48 47 45 43 43 43 42 41 41 40 39 38 37 37 36 36 36 37 38 38 39 40 40 41 43 43 44 46 48 49 50 52
43 45 48 50 51 51 51 52 52 51 49 48 46 45 44 42 41 41 40 40 39 39 38 37 36 36 36 37 37 37 38 38 39 40 41 42 43 44 46 48 49 50 51
42 43 46 48 50 50 50 51 52 51 49 47 46 46 44 43 41 41 40 40 39 38 37 37 36 36 36 36 36 37 38 38 39 40 41 42 43 44 46 48 49 50 50
42 44 45 47 49 49 49 49 49 50 49 48 47 46 45 43 42 41 40 40 40 39 38 37 36 35 35 35 36 37 38 38 39 40 41 42 43 45 46 47 48 49 50
41 43 45 47 48 49 49 49 48 48 48 49 46 46 45 44 42 41 41 40 39 38 37 37 35 34 35 35 36 37 37 38 39 40 41 41 43 44 46 47 47 48 49
39 41 42 44 46 47 49 50 49 48 48 48 48 47 45 43 43 41 40 39 38 38 37 37 35 34 35 36 36 37 38 39 39 40 40 41 42 44 45 45 46 47 48
38 40 41 41 43 45 46 48 47 47 47 47 48 48 46 45 43 41 40 39 38 37 37 36 34 34 35 36 36 37 37 38 39 40 40 40 42 43 44 45 45 46 47
38 39 39 39 41 42 43 45 46 46 46 46 46 46 46 45 44 42 41 40 38 37 36 35 35 35 35 35 35 35 35 37 38 39 39 40 41 42 43 43 44 45 46
38 38 39 39 40 41 41 43 44 45 45 45 45 44 44 44 43 42 41 40 38 36 35 34 34 34 34 33 33 33 34 36 37 37 38 39 40 40 41 42 43 44 46
38 38 39 40 40 40 41 41 42 43 44 45 45 44 42 42 42 41 41 39 37 36 35 34 34 33 34 34 33 33 35 36 37 37 38 38 38 39 40 41 42 44 45
37 37 39 40 40 41 40 40 40 41 42 42 43 42 41 40 40 40 40 39 38 37 36 34 34 34 34 34 33 34 35 35 35 36 36 36 37 38 39 40 41 42 43
36 37 38 39 40 40 41 41 40 40 41 40 40 40 41 41 40 39 38 38 38 37 36 35 34 33 34 33 33 34 35 35 35 34 34 35 36 37 38 39 40 40 42
37 37 38 39 40 41 41 41 40 40 40 39 39 38 39 39 38 38 36 35 36 36 35 35 35 35 34 33 33 34 34 34 33 32 33 34 34 36 37 38 39 39 39
36 37 37 38 38 39 40 40 40 41 40 40 39 38 38 37 37 37 36 36 35 34 35 36 35 34 33 33 33 33 32 31 30 30 31 32 33 34 36 36 37 37 37
35 35 37 37 37 38 38 39 40 40 41 40 39 37 37 37 36 36 36 35 34 34 34 34 33 32 32 32 31 30 30 29 28 29 30 31 32 33 34 35 35 35 35
34 35 36 37 37 37 38 38 39 39 39 39 38 37 36 36 36 35 34 34 33 33 33 32 31 30 30 29 28 28 28 28 27 28 28 29 31 32 33 33 33 34 35
33 33 34 35 36 36 37 37 37 38 38 38 37 36 36 36 35 34 34 32 31 31 31 30 29 28 27 26 25 26 26 25 26 26 27 28 30 31 31 31 32 33 34
32 33 34 35 35 36 37 37 37 37 37 36 36 35 35 34 34 32 31 30 29 29 29 28 27 25 24 23 24 23 23 24 24 25 26 27 29 29 28 30 31 32 33
30 32 34 34 34 35 35 36 36 36 36 36 36 35 35 33 32 31 30 28 27 28 28 27 26 24 22 22 22 21 21 22 22 23 25 26 27 27 27 29 30 30 31
30 31 32 34 34 34 34 35 35 36 37 36 35 34 34 33 30 29 29 28 27 27 27 26 25 24 22 22 22 21 21 21 22 23 24 25 25 25 26 27 28 29 29
29 30 32 34 35 35 35 35 35 35 36 36 36 35 33 31 30 29 27 27 26 26 25 24 23 22 22 21 20 20 20 21 21 22 23 24 24 24 25 26 27 27 27
30 31 32 34 35 35 34 33 33 33 33 34 34 34 33 32 31 30 28 27 26 24 23 22 21 21 21 20 20 19 19 20 20 21 22 22 22 22 23 25 26 25 25
28 29 31 32 33 34 34 33 32 32 32 33 33 33 33 32 31 30 30 28 26 25 24 22 21 20 20 19 19 18 18 18 20 20 21 21 21 21 22 23 24 23 23
26 27 29 30 31 32 33 32 31 31 31 32 32 32 31 30 30 30 28 28 26 24 23 21 20 19 18 17 17 17 17 18 18 19 20 19 20 20 21 22 22 22 23
Wind_Direction
225 224 224 223 223 225 226 227 228 229 231 233 234 236 238 241 243 247 249 251 255 258 261 265 268 272 276 280 284 287 291 294 297 300 302 305 307 310 312 313 315 316 317
227 226 225 225 225 226 226 227 229 230 231 233 235 237 238 242 244 247 250 253 255 258 261 265 268 272 277 280 284 287 291 294 297 299 302 304 307 309 312 313 315 316 317
229 227 225 225 225 226 226 227 228 230 232 233 235 238 239 242 245 246 249 253 255 257 260 264 267 272 277 280 284 287 291 293 296 299 302 305 307 310 312 314 315 317 318
230 228 226 225 225 227 228 228 229 231 234 234 235 237 238 241 244 246 249 252 255 258 261 264 268 272 276 280 284 288 291 293 296 299 302 305 308 311 313 315 316 317 319
229 227 226 226 226 227 228 228 230 230 232 235 236 237 239 241 243 246 249 252 256 259 262 265 269 272 276 280 285 288 291 294 296 299 303 306 309 311 314 315 316 318 319
229 228 228 228 227 228 229 228 230 232 232 236 237 238 239 241 243 246 249 253 256 259 262 265 268 272 277 281 285 288 290 293 296 299 303 306 309 312 314 316 317 318 319
231 230 230 229 229 228 229 228 229 232 233 235 236 239 240 240 243 246 249 252 256 258 261 265 269 273 277 281 285 288 290 294 297 300 303 306 309 312 314 316 317 318 320
230 231 232 231 229 229 230 229 231 233 235 235 237 239 240 241 243 245 248 251 254 257 260 265 268 272 275 280 284 288 290 294 297 301 303 306 309 312 314 316 317 319 321
231 230 230 231 230 230 230 230 231 232 232 234 236 239 241 243 244 246 248 250 253 256 261 264 267 272 276 279 283 286 290 294 297 300 303 306 309 312 314 316 318 319 321
233 232 232 233 232 231 231 229 230 231 232 235 237 239 241 243 244 247 248 250 253 256 260 263 267 272 276 280 284 287 291 295 297 300 303 306 309 312 314 316 318 320 322
237 236 234 233 232 231 231 232 231 232 233 234 236 238 240 242 243 245 248 250 252 255 258 263 268 272 275 279 284 287 292 295 298 300 303 306 309 311 313 316 318 320 322
239 238 236 234 232 231 231 230 230 232 233 234 235 236 238 240 242 245 248 249 251 254 257 261 265 270 274 278 282 286 290 294 297 299 303 306 309 311 314 316 318 321 323
239 239 238 235 233 231 230 230 230 231 230 231 233 235 237 238 241 244 247 250 252 254 257 260 264 268 272 276 280 284 289 293 296 299 302 306 308 311 315 317 319 321 323
239 238 237 235 233 231 229 230 230 231 228 229 232 234 236 238 240 242 245 249 251 254 258 261 264 266 270 274 278 283 287 291 296 299 301 305 309 312 316 318 320 322 324
238 237 236 234 233 230 230 230 230 229 229 230 231 235 237 238 240 242 246 248 250 254 258 260 264 266 270 274 277 282 285 290 295 298 302 306 309 313 316 319 321 323 325
238 237 236 233 231 229 229 229 229 229 230 231 232 236 238 238 239 242 245 247 249 252 256 260 262 266 269 273 276 279 283 288 293 298 302 306 309 313 317 320 322 324 325
238 237 234 232 230 229 229 230 229 229 229 231 234 235 237 238 240 242 244 245 247 251 254 257 262 266 269 273 276 278 282 286 291 298 303 307 310 314 317 320 322 324 324
236 236 233 229 228 228 228 228 228 228 229 230 233 235 236 237 239 242 243 245 246 249 253 256 260 263 267 270 274 278 281 284 291 299 303 307 311 314 317 320 322 323 325
235 233 230 228 227 227 227 227 227 227 228 229 231 233 235 237 237 240 242 244 246 247 250 254 257 259 265 269 272 276 279 284 292 299 303 307 312 315 318 320 322 323 325
234 231 229 227 227 226 227 227 228 228 228 230 231 232 234 235 236 238 239 241 244 246 248 252 254 257 260 266 271 274 280 286 291 298 303 308 313 316 317 320 323 324 326
233 230 227 226 225 224 225 226 228 228 228 230 230 231 232 233 235 235 237 240 244 246 248 251 253 253 258 266 269 273 280 286 292 299 305 310 314 315 317 321 323 325 328
233 231 228 226 225 224 224 225 227 227 228 228 227 228 229 230 230 231 234 238 241 244 248 251 250 252 258 263 267 273 279 287 295 301 305 310 313 315 317 321 325 327 330
232 230 229 227 224 223 223 225 226 227 227 226 226 226 226 226 225 225 229 234 238 242 246 246 247 251 256 259 264 271 279 288 296 302 305 309 311 315 319 323 326 327 329
232 230 228 226 224 223 222 222 224 225 225 223 223 223 223 223 223 225 228 230 233 238 241 244 247 250 252 255 262 269 279 288 294 301 305 310 312 315 319 323 326 327 329
231 229 227 225 223 221 221 221 222 224 224 222 222 223 222 222 223 225 227 228 230 236 239 242 247 249 250 254 260 267 277 287 295 301 304 309 312 315 318 322 325 326 329
230 225 221 220 220 220 220 220 220 220 220 220 220 219 218 220 222 223 226 227 229 232 234 239 245 248 250 254 260 267 277 288 296 301 305 308 311 313 316 320 324 326 329
Height
5595 5602 5610 5618 5626 5634 5643 5651 5659 5666 5673 5679 5685 5691 5697 5702 5706 5711 5715 5719 5721 5724 5726 5727 5728 5728 5728 5728 5726 5725 5723 5720 5717 5714 5710 5706 5702 5696 5690 5684 5677 5670 5662
5587 5594 5602 5609 5617 5626 5634 5642 5650 5657 5664 5670 5677 5682 5688 5693 5698 5703 5706 5710 5713 5715 5717 5719 5720 5720 5720 5719 5718 5716 5714 5712 5709 5706 5702 5698 5693 5688 5682 5675 5668 5661 5653
5579 5586 5593 5601 5609 5617 5625 5632 5640 5648 5655 5661 5668 5674 5679 5685 5690 5694 5698 5701 5704 5706 5709 5710 5711 5712 5712 5711 5710 5708 5706 5704 5701 5698 5694 5690 5685 5680 5674 5667 5659 5651 5643
5571 5577 5585 5592 5601 5608 5616 5623 5631 5638 5645 5652 5659 5665 5671 5676 5681 5685 5689 5692 5695 5698 5700 5702 5703 5703 5703 5703 5701 5700 5698 5695 5692 5689 5686 5681 5677 5671 5665 5659 5651 5643 5635
5563 5569 5576 5584 5592 5599 5607 5614 5622 5629 5637 5644 5650 5656 5662 5667 5672 5676 5680 5683 5686 5689 5691 5693 5694 5695 5695 5694 5693 5691 5690 5687 5684 5681 5677 5673 5668 5663 5657 5650 5643 5635 5626
5555 5561 5568 5575 5583 5591 5598 5606 5613 5620 5628 5634 5641 5647 5652 5658 5663 5667 5671 5674 5677 5680 5682 5684 5685 5686 5686 5685 5685 5683 5681 5679 5676 5673 5669 5665 5660 5654 5648 5641 5634 5627 5620
5547 5553 5560 5567 5574 5581 5588 5596 5604 5611 5619 5625 5632 5638 5644 5649 5654 5658 5662 5665 5668 5671 5673 5675 5676 5677 5677 5677 5676 5674 5672 5670 5668 5665 5661 5656 5651 5646 5640 5633 5625 5617 5610
5540 5546 5552 5559 5566 5573 5580 5587 5595 5602 5609 5615 5622 5628 5634 5640 5644 5649 5653 5656 5659 5662 5664 5666 5668 5669 5669 5669 5668 5666 5664 5662 5660 5657 5653 5648 5643 5637 5631 5624 5617 5609 5601
5533 5538 5544 5551 5557 5564 5571 5578 5585 5592 5599 5605 5612 5618 5624 5630 5635 5639 5643 5647 5650 5653 5655 5657 5659 5660 5660 5660 5659 5658 5656 5654 5651 5647 5644 5639 5634 5628 5622 5615 5609 5602 5594
5525 5531 5536 5542 5549 5555 5562 5568 5575 5582 5589 5596 5602 5608 5614 5620 5625 5630 5634 5637 5641 5644 5646 5649 5650 5651 5651 5651 5650 5649 5648 5645 5642 5639 5635 5631 5625 5620 5614 5607 5601 5594 5586
5517 5522 5528 5533 5540 5546 5553 5559 5566 5572 5579 5586 5592 5598 5604 5610 5616 5620 5624 5628 5631 5635 5637 5640 5641 5642 5643 5642 5642 5641 5639 5637 5634 5630 5626 5622 5617 5611 5605 5599 5593 5586 5578
5508 5514 5519 5525 5530 5536 5543 5550 5557 5563 5569 5576 5582 5588 5595 5600 5606 5611 5614 5618 5622 5625 5628 5631 5632 5633 5634 5634 5633 5632 5631 5628 5625 5622 5618 5614 5609 5603 5598 5591 5585 5578 5570
5499 5504 5510 5515 5521 5527 5534 5540 5547 5553 5559 5566 5572 5579 5585 5590 5595 5600 5605 5609 5612 5616 5619 5621 5623 5624 5624 5625 5625 5624 5622 5620 5617 5614 5610 5606 5601 5596 5590 5584 5577 5570 5563
5490 5495 5500 5505 5511 5517 5524 5530 5537 5544 5550 5556 5563 5569 5575 5580 5586 5591 5595 5599 5603 5606 5609 5612 5613 5614 5615 5616 5616 5615 5614 5612 5609 5606 5602 5598 5594 5589 5583 5577 5570 5563 5556
5480 5485 5490 5496 5501 5508 5515 5521 5528 5535 5541 5548 5554 5560 5566 5571 5577 5582 5585 5590 5594 5597 5600 5602 5604 5605 5606 5607 5607 5607 5605 5603 5601 5598 5595 5591 5586 5581 5576 5570 5564 5557 5550
5471 5476 5481 5487 5493 5499 5506 5513 5519 5526 5533 5539 5545 5551 5557 5562 5567 5572 5576 5580 5584 5587 5590 5593 5595 5597 5598 5599 5599 5598 5597 5595 5593 5591 5587 5583 5579 5575 5569 5563 5557 5551 5544
5462 5467 5472 5478 5484 5491 5497 5504 5511 5517 5523 5530 5536 5542 5548 5553 5558 5562 5566 5571 5574 5578 5581 5584 5586 5588 5590 5590 5590 5590 5589 5588 5585 5583 5580 5576 5572 5568 5562 5557 5551 5545 5539
5453 5458 5464 5470 5476 5482 5489 5495 5502 5508 5515 5521 5527 5533 5538 5544 5549 5553 5557 5561 5565 5569 5573 5576 5578 5580 5581 5581 5582 5581 5581 5580 5578 5576 5573 5569 5565 5561 5556 5550 5545 5539 5533
5444 5449 5455 5461 5467 5474 5480 5486 5493 5499 5506 5513 5518 5524 5529 5534 5540 5544 5548 5553 5557 5561 5564 5567 5570 5572 5573 5573 5574 5574 5573 5572 5571 5568 5565 5562 5558 5554 5549 5544 5539 5534 5528
5435 5441 5446 5452 5459 5465 5472 5478 5484 5491 5497 5504 5510 5515 5521 5526 5531 5536 5540 5545 5549 5552 5556 5559 5561 5563 5565 5566 5566 5566 5566 5565 5563 5561 5558 5555 5551 5547 5543 5538 5533 5528 5522
5427 5432 5438 5444 5450 5457 5463 5469 5476 5482 5488 5495 5501 5506 5512 5518 5523 5528 5532 5537 5541 5544 5548 5551 5553 5555 5557 5558 5559 5559 5559 5558 5556 5554 5551 5548 5545 5541 5537 5532 5527 5523 5517
5419 5424 5430 5435 5442 5448 5455 5461 5467 5473 5480 5486 5492 5497 5503 5509 5514 5519 5524 5529 5533 5536 5540 5543 5546 5548 5550 5551 5552 5552 5552 5551 5549 5547 5545 5542 5539 5535 5531 5527 5522 5517 5512
5412 5416 5421 5427 5433 5440 5446 5452 5459 5465 5470 5476 5482 5489 5495 5500 5506 5511 5517 5521 5526 5529 5532 5535 5538 5540 5542 5544 5544 5545 5545 5544 5543 5541 5538 5536 5532 5529 5525 5521 5517 5512 5508
5404 5408 5414 5419 5425 5432 5438 5444 5450 5456 5462 5468 5474 5480 5486 5493 5498 5504 5509 5513 5518 5522 5525 5528 5531 5533 5535 5536 5537 5538 5538 5537 5536 5534 5532 5530 5527 5523 5520 5516 5512 5508 5504
5396 5401 5406 5411 5417 5423 5430 5436 5442 5448 5454 5460 5466 5472 5478 5484 5491 5496 5501 5506 5510 5515 5518 5522 5524 5526 5528 5530 5531 5531 5531 5531 5530 5528 5526 5524 5521 5518 5515 5512 5508 5504 5500
5389 5393 5398 5403 5409 5415 5421 5427 5434 5440 5446 5452 5458 5464 5470 5477 5483 5489 5494 5499 5503 5508 5511 5515 5517 5519 5521 5523 5524 5525 5525 5524 5523 5522 5520 5518 5516 5513 5510 5507 5504 5500 5497